This is the latest recevied weather packets stored in our database for station/object K6POO-1. If no packets are shown the sender has not sent any weather packets the latest 10 day(s).
| Time | Temp. | Humidity | Pressure | Rain* | Wind** | Luminosity | Snow |
|---|---|---|---|---|---|---|---|
| 1778095029 | 19.44° C | 65% | 1020.7 hPa | 0 mm | - | 969 W/m² | - |
| 1778094725 | 19.44° C | 66% | 1020.7 hPa | 0 mm | - | 970 W/m² | - |
| 1778094423 | 18.89° C | 67% | 1020.6 hPa | 0 mm | - | 966 W/m² | - |
| 1778094113 | 18.89° C | 67% | 1020.8 hPa | 0 mm | - | 960 W/m² | - |
| 1778093810 | 18.33° C | 67% | 1020.9 hPa | 0 mm | - | 960 W/m² | - |
| 1778093506 | 18.33° C | 68% | 1020.8 hPa | 0 mm | - | 958 W/m² | - |
| 1778093199 | 18.33° C | 67% | 1020.8 hPa | 0 mm | - | 951 W/m² | - |
| 1778092896 | 18.33° C | 67% | 1020.6 hPa | 0 mm | - | 945 W/m² | - |
| 1778092592 | 18.33° C | 68% | 1020.9 hPa | 0 mm | - | 1020 W/m² | - |
| 1778092288 | 17.78° C | 69% | 1020.9 hPa | 0 mm | - | 1020 W/m² | - |
| 1778091986 | 18.33° C | 68% | 1020.8 hPa | 0 mm | - | 779 W/m² | - |
| 1778091683 | 17.78° C | 70% | 1020.8 hPa | 0 mm | - | 975 W/m² | - |
| 1778091381 | 17.22° C | 72% | 1021 hPa | 0 mm | - | 951 W/m² | - |
| 1778091078 | 17.22° C | 70% | 1021 hPa | 0 mm | - | 329 W/m² | - |
| 1778090775 | 17.78° C | 69% | 1020.9 hPa | 0 mm | - | 389 W/m² | - |
| 1778090471 | 17.78° C | 68% | 1020.6 hPa | 0 mm | - | 380 W/m² | - |
| 1778090167 | 17.78° C | 69% | 1020.9 hPa | 0 mm | - | 689 W/m² | - |
| 1778089863 | 17.78° C | 70% | 1020.7 hPa | 0 mm | - | 617 W/m² | - |
| 1778089562 | 17.78° C | 69% | 1020.8 hPa | 0 mm | - | 557 W/m² | - |
| 1778089258 | 17.78° C | 68% | 1020.8 hPa | 0 mm | - | 965 W/m² | - |
| 1778088956 | 17.22° C | 69% | 1020.7 hPa | 0 mm | - | 927 W/m² | - |
| 1778088653 | 17.78° C | 69% | 1020.8 hPa | 0 mm | - | 877 W/m² | - |
| 1778088350 | 17.22° C | 71% | 1020.8 hPa | 0 mm | - | 851 W/m² | - |
| 1778088045 | 16.67° C | 73% | 1020.8 hPa | 0 mm | - | 425 W/m² | - |
| 1778087743 | 16.67° C | 71% | 1021.1 hPa | 0 mm | - | 295 W/m² | - |
* Rain latest hour (hover to see other rain measurements)
** Current wind speed in m/s (hover to see current wind gust speed)